This is the latest recevied weather packets stored in our database for station/object DB0LHR-6. If no packets are shown the sender has not sent any weather packets the latest 10 day(s).
| Time | Temp. | Humidity | Pressure | Rain* | Wind** | Luminosity | Snow |
|---|---|---|---|---|---|---|---|
| 1777523542 | 7.78° C | 29% | 1022 hPa | 0 mm | - | - | - |
| 1777522642 | 7.78° C | 31% | 1022 hPa | 0 mm | - | - | - |
| 1777521742 | 7.78° C | 30% | 1022 hPa | 0 mm | - | - | - |
| 1777520842 | 7.78° C | 29% | 1022 hPa | 0 mm | - | - | - |
| 1777519942 | 8.33° C | 28% | 1022 hPa | 0 mm | - | - | - |
| 1777519042 | 8.89° C | 27% | 1022 hPa | 0 mm | - | - | - |
| 1777518142 | 8.89° C | 26% | 1022 hPa | 0 mm | - | - | - |
| 1777517242 | 9.44° C | 24% | 1022 hPa | 0 mm | - | - | - |
| 1777516342 | 9.44° C | 24% | 1022 hPa | 0 mm | - | - | - |
| 1777515442 | 10° C | 24% | 1022 hPa | 0 mm | - | - | - |
| 1777514542 | 10° C | 21% | 1022 hPa | 0 mm | - | - | - |
| 1777513642 | 10° C | 21% | 1022 hPa | 0 mm | - | - | - |
| 1777512742 | 10° C | 21% | 1022 hPa | 0 mm | - | - | - |
| 1777511842 | 10.56° C | 21% | 1022 hPa | 0 mm | - | - | - |
| 1777510942 | 10.56° C | 18% | 1022 hPa | 0 mm | - | - | - |
| 1777510042 | 10.56° C | 18% | 1022 hPa | 0 mm | - | - | - |
| 1777509143 | 11.11° C | 18% | 1022 hPa | 0 mm | - | - | - |
| 1777508242 | 11.67° C | 18% | 1022 hPa | 0 mm | - | - | - |
| 1777507342 | 12.22° C | 15% | 1022 hPa | 0 mm | - | - | - |
| 1777506442 | 12.22° C | 15% | 1022 hPa | 0 mm | - | - | - |
| 1777505542 | 12.78° C | 15% | 1022 hPa | 0 mm | - | - | - |
| 1777504642 | 13.33° C | 14% | 1022 hPa | 0 mm | - | - | - |
| 1777503742 | 13.33° C | 15% | 1021 hPa | 0 mm | - | - | - |
| 1777502842 | 13.33° C | 14% | 1022 hPa | 0 mm | - | - | - |
| 1777501943 | 13.33° C | 15% | 1021 hPa | 0 mm | - | - | - |
* Rain latest 24 hours (hover to see other rain measurements)
** Current wind speed in m/s (hover to see current wind gust speed)